YUZGU UA

Last updated on Thu Jan 26 2023 00:02:07 GMT+0000 (Coordinated Universal Time)

1 53322U 98067UA 23025.85263318 .05091492 12003-4 13343-2 0 9999 2 53322 51.6205 292.5717 0007575 207.3019 272.6947 16.27678122 29476

Satellite not in orbit